Location: ??
(35.6062°N, 139.6367°E)
Time: 12:48:51
(UTC+00:00)

Daily predictions for brighter satellites

Satellite Brightness Start Highest point End
(mag) Time Altitude Azimuth Time Altitude Azimuth Time Altitude Azimuth
Atlas Centaur 2 4.3 18:00:08 27° ESE 18:00:08 27° ESE 18:02:57 10° E
Milstar 3 Cent rocket 4.2 18:01:33 32° ESE 18:01:33 32° ESE 18:07:08 10° E
CZ-4C R/B 4.2 18:34:42 19° NE 18:34:42 19° NE 18:36:20 10° NE
CENTAUR R/B 3.1 18:35:18 87° ESE 18:35:18 87° ESE 18:44:04 10° SSE
NOSS 3-2 (C) 4.0 18:42:52 83° SSW 18:42:52 83° SSW 18:51:19 10° SSE
Cosmos 1844 Rocket 3.4 18:52:23 29° SSE 18:55:00 50° ESE 19:00:28 10° NNE
ATLAS 2AS CENTAUR R/B 3.4 18:58:54 47° NNW 18:58:54 47° NNW 19:04:56 10° NNE
ATLAS CENTAUR R/B 3.7 19:03:53 17° NE 19:04:00 17° NE 19:06:34 10° E
Cosmos 1151 Rocket 4.3 19:16:57 34° SSE 19:16:57 34° SSE 19:19:24 10° S
OAO 2 Rocket 3.4 19:17:26 73° SE 19:17:26 73° SE 19:22:04 10° E
Cosmos 1844 4.0 19:11:45 10° S 19:17:12 62° ESE 19:22:42 10° NNE
Lacrosse 5 4.0 19:23:01 14° N 19:23:01 14° N 19:24:02 10° NNE
ATLAS 5 CENTAUR R/B 4.2 19:18:07 10° SSE 19:20:41 17° ESE 19:23:21 10° ENE
ADEOS Rocket 4.4 19:15:11 10° SSW 19:17:33 23° SSW 19:17:33 23° SSW
ERS-2 3.3 19:19:00 10° SE 19:22:25 40° ENE 19:22:25 40° ENE
Cosmos 158 Rocket 3.7 19:25:28 76° NNW 19:25:52 89° ENE 19:30:55 10° SSE
Cosmos 405 Rocket 4.3 19:26:01 10° SSE 19:29:20 33° E 19:32:44 10° NNE
CZ-2C R/B 3.2 19:29:11 17° SSE 19:29:24 17° SSE 19:31:36 10° ESE
Cosmos 923 Rocket 3.9 19:29:15 60° NNW 19:30:14 82° WSW 19:35:33 10° SSE
Cosmos 1862 4.5 19:30:19 10° SSE 19:34:09 43° E 19:38:01 10° NNE
CZ-4B R/B 2.8 19:36:31 10° SSE 19:38:11 29° SSE 19:38:11 29° SSE
FENGYUN 3A 3.6 19:35:03 10° N 19:40:18 55° WNW 19:45:32 10° SSW
Cosmos 1500 Rocket 3.9 19:36:22 10° S 19:40:37 64° E 19:44:54 10° NNE
Cosmos 1328 Rocket 3.7 19:43:53 53° WSW 19:43:53 53° WSW 19:47:44 10° S
Atlas Centaur 2 2.9 19:42:44 33° WSW 19:45:40 54° S 19:51:19 10° ESE
Meteor PRIRODA 4.5 19:42:41 10° NNE 19:46:21 51° E 19:49:57 10° S
CZ-4B R/B 3.3 19:44:45 10° NNE 19:49:11 69° E 19:53:25 10° S
Lacrosse 4 Rocket 2.7 19:52:47 26° SW 19:52:47 26° SW 19:55:28 10° S
Cosmos 372 Rocket 4.3 19:46:52 10° S 19:51:53 64° ESE 19:56:56 10° NNE
Cosmos 1680 Rocket 3.5 19:54:27 28° NW 19:57:08 61° WSW 20:02:20 10° S
COSMOS 2455 2.8 19:51:23 10° SSW 19:57:25 88° WNW 20:03:29 10° NNE
ATLAS 3B R/B 2.8 19:52:51 18° NNW 19:58:21 87° ENE 20:05:39 10° SSE
Gbstr 26 Del rocket 3.0 19:57:50 38° NNW 19:59:02 59° NE 20:02:59 10° ESE
Cosmos 2181 Rocket 4.1 19:55:45 12° NNW 20:01:09 46° W 20:06:56 10° SSW
Cosmos 1782 3.1 20:03:30 41° WNW 20:03:55 42° W 20:07:43 10° SSW
Cosmos 2154 Rocket 4.0 19:58:38 10° S 20:04:50 83° E 20:11:08 10° N
Cosmos 1743 Rocket 3.5 20:01:11 10° SSW 20:05:34 61° W 20:10:01 10° N
Cosmos 1689 Rocket 2.6 20:03:13 10° SSE 20:06:01 56° ENE 20:08:00 17° N
H-2A R/B 3.4 20:02:53 10° NNE 20:06:43 56° E 20:10:28 10° S
SAR-Lupe-4 3.4 20:09:04 10° S 20:12:36 70° WSW 20:15:20 16° NNW
COSMO-SKYMED 1 2.5 20:09:41 10° S 20:13:59 70° WSW 20:18:20 10° NNW
ASTRO F (AKARI) 4.5 20:13:27 10° NNE 20:16:35 72° ESE 20:19:49 10° S
Cosmos 2278 Rocket 3.5 20:12:09 10° S 20:17:27 43° ESE 20:22:46 10° NE
SEDSat Delta rocket 4.3 20:13:06 11° SW 20:17:30 38° SSE 20:21:39 10° E
Cosmos 2112 Rocket 4.3 20:14:01 18° NW 20:17:44 45° WSW 20:22:46 10° S
EO 1 Delta rocket 4.0 20:14:09 10° SSE 20:19:18 78° E 20:23:56 10° N
Cosmos 1437 Rocket 3.5 20:15:56 10° N 20:19:37 50° E 20:23:17 10° SSE
CZ-4C R/B 3.5 20:19:55 17° NW 20:20:08 17° NW 20:23:48 10° N
Cosmos 2327 Rocket 4.4 20:14:16 10° SSW 20:20:20 71° W 20:26:25 10° N
Cosmos 2074 Rocket 4.3 20:16:23 10° SSW 20:22:13 43° W 20:28:05 10° N
Cosmos 1805 Rocket 3.5 20:19:46 10° S 20:24:12 80° W 20:28:40 10° N
CENTAUR R/B 4.4 20:22:33 17° W 20:25:10 20° WSW 20:31:00 10° SSW
YAOGAN 6 3.3 20:22:14 10° NNE 20:25:38 53° E 20:29:02 10° S
Cosmos 1295 Rocket 4.4 20:21:31 10° S 20:27:36 80° W 20:33:43 10° N
PSLV R/B 3.9 20:24:55 10° S 20:29:01 65° WSW 20:33:07 10° NNW
SAR-Lupe-1 4.4 20:26:11 10° S 20:29:34 42° W 20:32:46 11° NNW
Envisat 3.3 20:24:43 10° NNE 20:29:48 70° ESE 20:34:51 10° S
Meteor 1-27 Rocket 4.2 20:25:32 10° N 20:31:20 66° E 20:37:12 10° SSE
Cosmos 1666 Rocket 4.4 20:27:36 10° S 20:31:47 52° E 20:36:00 10° NNE
Cosmos 1937 Rocket 4.5 20:29:18 10° WSW 20:33:26 24° WNW 20:37:36 10° N
Meteor 1-10 Rocket 4.2 20:30:09 10° NNW 20:35:41 67° W 20:41:18 10° S
Milstar 3 Cent rocket 4.3 20:30:23 11° W 20:37:25 49° S 20:52:20 10° ESE
USA 234 3.5 20:32:06 10° NE 20:38:38 74° SE 20:45:09 10° SW
Cosmos 1844 Rocket 3.8 20:34:57 10° WSW 20:39:09 21° WNW 20:43:23 10° N
GPS 2-04 Rocket1 3.3 20:38:11 15° W 20:41:15 44° SSW 20:44:54 10° SE
ATLAS CENTAUR R/B 1.9 20:40:05 14° NW 20:42:56 36° WSW 20:46:39 10° S
OAO 3 Copernicus 4.4 20:42:52 11° W 20:47:48 85° S 20:52:53 10° E
SMAP 3.7 20:44:31 10° NNE 20:49:09 62° E 20:53:44 10° S
Cosmos 1125 Rocket 3.5 20:48:39 10° SSW 20:53:52 89° WNW 20:59:06 10° NNE
Cosmos 1633 Rocket 3.2 20:51:20 10° S 20:55:45 84° E 21:00:11 10° N
Cosmos 1048 Rocket 4.4 20:54:37 10° NNW 20:59:50 66° ENE 21:04:57 10° SSE
Cosmos 2150 Rocket 4.2 20:55:22 10° SSW 21:00:33 52° WNW 21:05:42 10° N
OAO 2 Rocket 4.1 20:56:50 10° W 21:01:36 44° SSW 21:06:28 10° SE
Cosmos 2298 Rocket 4.3 20:57:08 10° SW 21:02:12 46° WNW 21:07:18 10° N
BREEZE-M (TANK) 3.3 20:52:34 10° WSW 21:02:28 56° NW 21:05:30 10° NE
BREEZE-M DEB 3.2 20:55:27 10° NW 21:02:57 70° NNE 21:05:35 10° ESE
Cosmos 1242 Rocket 4.3 21:01:23 10° N 21:04:47 36° ENE 21:08:11 10° SSE
ATLAS 5 CENTAUR R/B 2.1 21:01:22 10° WSW 21:04:53 31° NW 21:08:44 10° NNE
BREEZE M DEB (TANK) 3.8 21:01:48 10° W 21:08:25 27° NW 21:11:12 10° NNE
CZ-2C R/B 1.3 21:05:25 10° WSW 21:08:36 54° SSE 21:11:45 10° E
CZ-2C R/B 3.3 21:03:34 10° SSE 21:08:58 62° ENE 21:14:16 10° N
